COSMOS 2251 DEB, 33782

Orbit data source: Space-Track

COSMOS 2251 DEB, 33782 is space debris in LEO originally from a launch on Wed, 16 Jun 1993 UTC launched from the Plesetsk Missile And Space Complex (PKMTR). The debris from Iridium 33, an American commercial communications satellite, has been tracked extensively since its accidental collision with the defunct Russian satellite Cosmos 2251 in 2009. This event, occurring at high speed in low Earth orbit (LEO), generated thousands of pieces of space debris, significantly increasing the risk of further collisions. The Iridium 33 debris cloud has impacted space traffic management and orbital debris mitigation strategies, making it a subject of ongoing study in space situational awareness.

Loading next visibility...
Identifier
33782, 1993-036X
Orbit
LEO
Country
Flag of CISCIS
Related business
Manufacturer
Unknown
Mission
Spacecraft
Bus & Motor
Unknown
Mass
Unknown
Launch date (UTC)
1993-06-16 (32 years ago)
Launch vehicle
Unknown
Launch site
Plesetsk Missile And Space Complex (PKMTR)
Object type
Payload
Rocket body
Debris
Shape & HBR
Unknown shape, 0.1 m
Radar Cross Section
Small (<0.1 m²)

Expand to show TLE details & history
Last TLE update: 4 hours ago

TLE from 4 hours ago
0 COSMOS 2251 DEB
1 33782U 93036X   25296.66816074  .00001606  00000-0  51452-3 0  9999
2 33782  74.0360  10.1372 0019269  90.6195  61.7209 14.40253475874050
Epoch: 2025-10-23T16:02Z
TLE epoch observation values (Epoch: 2025-10-23T16:02:09.087Z)
Latitude
26.36435°
Longitude
-90.83194°
Altitude
754.066 km
Speed
7.483 km/s
True Right ascension
12h 08m 07s
True Declination
26° 13' 40"
Sunlit
Object was in daylight at epoch
Visualization orbit readout
Latitude
Unknown
Longitude
Unknown
Altitude
Unknown
Speed
Unknown
Apparent Right ascension
Unknown
Apparent Declination
Unknown
Sunlit
N/A
Visualization observer readout
Local Sidereal Time
14:48:58
Azimuth
Unknown
Elevation
Unknown
Doppler factor
Unknown
Orbital elements
Apogee altitude
769.026 km
Perigee altitude
741.535 km
Semi-major axis
7,133.417 km
Eccentricity
0.00193
Inclination
74.036°
RAAN
10.1372°
Arg. of periapsis
90.6195°
True anomaly
61.91558°
Mean anomaly
61.7209°
Eccentric anomaly
61.81822°
Mean motion
3.60244 °/min
Orbital period
99.93 mins
BSTAR
0.00051452

Documentation

Showing up to 5 results
|